Tracking 27405 objects as of 2-Jun-2023
HD Live streaming from Space Station
objects crossing your sky now

H-2A DEB

Track H-2A DEB now!
10-day predictions


NORAD ID: 43673
Int'l Code: 2018-084C
Perigee: 561.2 km
Apogee: 578.5 km
Inclination: 98.0 °
Period: 95.9 minutes
Semi major axis: 6940 km
RCS: Unknown
Launch date: October 29, 2018
Source: Japan (JPN)
Launch site: TANEGASHIMA SPACE CENTER (TNSTA)

Note: This is SATELLITE DEBRIS
Your satellite tracking list
Your tracking list is empty




NASA's NSSDC Master Catalog

Two Line Element Set (TLE):
1 43673U 18084C   23152.33377441  .00018963  00000-0  14713-2 0  9994
2 43673  97.9929 288.2484 0012437 183.9396 176.1731 15.01354202249545
Source of the keplerian elements: McCants